Redmond, OR

5:54 AM PDT on May 25, 2017 (GMT -0700)
Roberts Field Airport

Weather History for KRDM - March, 2012

Change the Weather History Date:

Tuesday, March 6, 2012

  Actual Average Record
Temperature  
Mean Temperature 26 °F 38 °F  
Max Temperature 38 °F 52 °F 68 °F (2005)
Min Temperature 14 °F 25 °F 14 °F (1995)
Degree Days  
Heating Degree Days 39 27  
Month to date heating degree days 177 164  
Since 1 July heating degree days 4702 4837  
Cooling Degree Days 0 0  
Month to date cooling degree days 0 0  
Year to date cooling degree days 0 0  
Moisture  
Dew Point 16 °F    
Average Humidity 55    
Maximum Humidity 81    
Minimum Humidity 29    
Precipitation  
Precipitation 0.02 in 0.02 in 0.51 in (1989)
Month to date precipitation 0.12 0.12  
Year to date precipitation 2.33 1.74  
Sea Level Pressure  
Sea Level Pressure 30.04 in    
Wind  
Wind Speed 8 mph (NW)    
Max Wind Speed 20 mph    
Max Gust Speed 25 mph    
Visibility 8 miles    
Events Snow    
T = Trace of Precipitation, MM = Missing Value Source: NWS Daily Summary

Daily Weather History Graph

Daily Weather History Graph

Search for Another Location

Airport or City:

Trip Planner

Search our weather history database for the weather conditions in past years. The results will help you decide how hot, cold, wet, or windy it might be!

Date:

Astronomy

Mar. 06, 2012 Rise Set
Actual Time 6:31 AM PST 6:00 PM PST
Civil Twilight 6:03 AM PST 6:29 PM PST
Nautical Twilight 5:29 AM PST 7:02 PM PST
Astronomical Twilight 4:55 AM PST 7:36 PM PST
Moon 4:30 PM PST (3/6) 5:13 AM PST (3/6)
Length of Visible Light 12h 25m
Length of Day
11h 28m
Waxing Gibbous, 97% of the Moon is Illuminated
Mar 6
Waxing Gibbous
Mar 8
Full
Mar 14
Last Quarter
Mar 22
New
Mar 30
First Quarter

Hourly Weather History & Observations

Time (PST) Temp. Windchill Dew Point Humidity Pressure Visibility Wind Dir Wind Speed Gust Speed Precip Events Conditions
12:56 AM 28.0 °F 18.1 °F 19.0 °F 69% 29.86 in 10.0 mi WNW 11.5 mph - N/A   Scattered Clouds
1:56 AM 25.0 °F 19.3 °F 18.0 °F 75% 29.89 in 10.0 mi NNW 4.6 mph - N/A   Overcast
2:56 AM 26.1 °F 15.0 °F 17.1 °F 69% 29.89 in 10.0 mi WNW 12.7 mph 19.6 mph N/A   Partly Cloudy
3:39 AM 24.8 °F 12.9 °F 19.4 °F 80% 29.90 in 2.5 mi North 13.8 mph - 0.00 in Snow Light Snow
3:42 AM 24.8 °F 11.1 °F 19.4 °F 80% 29.90 in 1.8 mi North 18.4 mph 24.2 mph 0.02 in Snow Light Snow
3:52 AM 23.0 °F 8.7 °F 19.4 °F 86% 29.90 in 1.0 mi NNW 18.4 mph 24.2 mph 0.02 in Snow Light Snow
3:56 AM 23.0 °F 10.1 °F 19.9 °F 88% 29.94 in 1.0 mi NNW 15.0 mph 24.2 mph 0.02 in Snow Light Snow
4:04 AM 23.0 °F 10.6 °F 19.4 °F 86% 29.90 in 0.8 mi NNW 13.8 mph 20.7 mph 0.00 in Snow Light Snow
4:12 AM 23.0 °F 13.1 °F 19.4 °F 86% 29.91 in 1.5 mi NW 9.2 mph 20.7 mph 0.00 in Snow Light Snow
4:16 AM 23.0 °F 13.1 °F 19.4 °F 86% 29.91 in 3.0 mi NW 9.2 mph - 0.00 in Snow Light Snow
4:35 AM 23.0 °F 14.7 °F 19.4 °F 86% 29.92 in 10.0 mi WNW 6.9 mph - N/A   Overcast
4:56 AM 21.9 °F - 19.0 °F 89% 29.98 in 10.0 mi Calm Calm - 0.00 in   Overcast
5:56 AM 19.9 °F 11.1 °F 14.0 °F 78% 30.00 in 10.0 mi West 6.9 mph - N/A   Clear
6:56 AM 21.9 °F 17.2 °F 15.1 °F 75% 30.00 in 10.0 mi West 3.5 mph - N/A   Mostly Cloudy
7:56 AM 23.0 °F 17.0 °F 17.1 °F 78% 30.03 in 10.0 mi NW 4.6 mph - N/A   Mostly Cloudy
7:58 AM 23.0 °F 18.4 °F 17.6 °F 80% 29.96 in 10.0 mi WNW 3.5 mph - N/A   Mostly Cloudy
8:56 AM 26.1 °F 21.9 °F 19.0 °F 75% 30.04 in 10.0 mi NNW 3.5 mph - N/A   Overcast
9:56 AM 28.4 °F - 21.2 °F 74% 29.99 in 9.0 mi Calm Calm - N/A   Overcast
10:56 AM 28.9 °F 22.8 °F 19.0 °F 67% 30.06 in 10.0 mi NNW 5.8 mph - N/A   Mostly Cloudy
11:56 AM 32.0 °F 22.5 °F 18.0 °F 56% 30.08 in 10.0 mi NNW 12.7 mph 25.3 mph N/A   Mostly Cloudy
12:56 PM 35.1 °F 25.2 °F 12.9 °F 40% 30.07 in 10.0 mi NNW 16.1 mph 20.7 mph 0.00 in   Mostly Cloudy
1:56 PM 36.0 °F 27.1 °F 10.0 °F 34% 30.08 in 10.0 mi NW 13.8 mph 20.7 mph N/A   Partly Cloudy
2:56 PM 34.0 °F 25.0 °F 8.1 °F 34% 30.12 in 10.0 mi NNW 12.7 mph - N/A   Partly Cloudy
3:56 PM 35.1 °F 27.4 °F 9.0 °F 34% 30.14 in 10.0 mi North 10.4 mph - N/A   Clear
4:56 PM 35.1 °F 27.4 °F 7.0 °F 31% 30.16 in 10.0 mi North 10.4 mph - N/A   Clear
5:56 PM 32.0 °F 23.6 °F 12.9 °F 45% 30.18 in 10.0 mi NNW 10.4 mph - N/A   Partly Cloudy
6:56 PM 28.0 °F 20.8 °F 12.9 °F 53% 30.22 in 10.0 mi NW 6.9 mph - N/A   Clear
7:56 PM 27.0 °F 20.5 °F 14.0 °F 58% 30.25 in 10.0 mi NW 5.8 mph - N/A   Clear
8:56 PM 26.1 °F 19.4 °F 15.1 °F 63% 30.26 in 10.0 mi NW 5.8 mph - N/A   Clear
10:56 PM 19.0 °F 12.3 °F 14.0 °F 81% 30.29 in 10.0 mi South 4.6 mph - N/A   Clear
11:56 PM 18.0 °F 12.7 °F 14.0 °F 84% 30.29 in 10.0 mi South 3.5 mph - N/A   Clear